This demonstration page uses our WeatherBlox Daily Observations layout. Learn more.

36.17497, -115.13722

Hourly Observations for September 13, 2019

Temp ( °F °C ) Dew Point ( °F °C ) Humidity (%) Winds ( mph kmh ) Pressure ( in mb ) Visibility ( mi km ) Precip ( " mm )
12:53 am 00:53 Clear 76 24.4 29 -1.7 18 18 Calm 30 1016 10 16.09344 0 0
1:53 am 01:53 Clear 73 22.8 33 0.6 23 23 W 3 6 30 1016 10 16.09344 0 0
2:53 am 02:53 Clear 72 22.2 33 0.6 24 24 Calm 30 1016 10 16.09344 0 0
3:53 am 03:53 Clear 72 22.2 32 0 23 23 SSW 6 9 30.03 1017 10 16.09344 0 0
4:53 am 04:53 Clear 72 22.2 29 -1.7 20 20 WNW 5 7 30.03 1017 10 16.09344 0 0
5:53 am 05:53 Clear 69 20.6 31 -0.6 24 24 WNW 6 9 30.03 1017 10 16.09344 0 0
6:53 am 06:53 Sunny 72 22.2 30 -1.1 21 21 W 3 6 30.06 1018 10 16.09344 0 0
7:53 am 07:53 Sunny 77 25 27 -2.8 16 16 NNW 8 13 30.06 1018 10 16.09344 0 0
8:53 am 08:53 Sunny 82 27.8 28 -2.2 14 14 NNW 9 15 30.06 1018 10 16.09344 0 0
9:53 am 09:53 Sunny 85 29.4 28 -2.2 13 13 NNE 6 9 30.06 1018 10 16.09344 0 0
10:53 am 10:53 Sunny 88 31.1 27 -2.8 11 11 Calm 30.06 1018 10 16.09344 0 0
11:53 am 11:53 Sunny 90 32.2 27 -2.8 10 10 WNW 5 7 30.03 1017 10 16.09344 0 0
12:53 pm 12:53 Sunny 92 33.3 27 -2.8 10 10 S 6 9 30 1016 10 16.09344 0 0
1:53 pm 13:53 Sunny 94 34.4 28 -2.2 9 9 SSE 3 6 29.97 1015 10 16.09344 0 0
2:53 pm 14:53 Sunny 95 35 27 -2.8 9 9 VRB 3 6 29.94 1014 10 16.09344 0 0
3:53 pm 15:53 Sunny 95 35 27 -2.8 9 9 S 3 6 29.94 1014 10 16.09344 0 0
4:53 pm 16:53 Sunny 96 35.6 26 -3.3 8 8 SSE 6 9 29.91 1013 10 16.09344 0 0
5:53 pm 17:53 Sunny 95 35 26 -3.3 8 8 Calm 29.91 1013 10 16.09344 0 0
6:53 pm 18:53 Clear 95 35 26 -3.3 8 8 Calm 29.91 1013 10 16.09344 0 0
7:53 pm 19:53 Clear 92 33.3 28 -2.2 10 10 Calm 29.91 1013 10 16.09344 0 0
8:53 pm 20:53 Clear 86 30 34 1.1 15 15 WNW 6 9 29.94 1014 10 16.09344 0 0
9:53 pm 21:53 Clear 82 27.8 33 0.6 17 17 NW 7 11 29.94 1014 10 16.09344 0 0
10:53 pm 22:53 Clear 80 26.7 32 0 17 17 NW 5 7 29.94 1014 10 16.09344 0 0
11:53 pm 23:53 Clear 80 26.7 32 0 17 17 W 8 13 29.94 1014 10 16.09344 0 0

Powered by AerisWeather